sat.trackr.live / text

‹ back to catalog

STARLINK-11531 [DTC]

NORAD 62841 · 2025-019N

PAYLOAD ACTIVE UNKNOWN

§ Identity

Operator
Country
US
Launch date
2025-01-27
Launch site
AFETR
Launch vehicle
Mass (kg)
RCS (m²)

Purposes: comms

External: N2YO · Heavens-Above · Gunter

§ Orbital elements

Epoch: 2026-05-25T05:02:09.374208Z

Period
91.67 min
Inclination
43.0005°
Eccentricity
0.0001438
Mean motion
15.70900115 rev/d
Perigee alt
355.4 km
Apogee alt
357.3 km
Semi-major
6,734.5 km
B*
1.2702e-3
RAAN
204.8984°
Arg perigee
273.8248°
Mean anomaly
86.2455°
Rev number
7,591

§ Raw data

STARLINK-11531 [DTC]1 62841U 25019N   26145.20983072  .00166248  00000+0  12702-2 0  99972 62841  43.0005 204.8984 0001438 273.8248  86.2455 15.70900115 75911

JSON: /api/v1/satellites/62841 · /tle

For live sub-satellite position, see the globe view (requires WebGL).

§ Visibility from observer

Set your observer location to see the next 7 days of passes ≥ 10°. The values pass through the URL so the page stays shareable.

No JS? Fill the form by hand. The geolocation button needs JavaScript.